Presure
242 244 185 239 247 230 246 253 236 269 283 296 290 231 275 292 276 299 318 306 303 310 290 260 171 204 249 241 235 231 229 225 230 231 193 222 225 225 198 213 201 204 195 206 201 193 184 191 201 203 196 189 171 193
259 251 253 263 256 269 267 281 267 250 281 279 332 343 324 277 265 280 151 337 351 318 329 322 280 268 256 242 242 223 236 229 232 224 217 214 227 195 189 201 205 208 203 196 200 197 199 198 191 190 195 195 194 195
231 242 251 244 271 275 261 293 275 289 298 308 321 290 260 297 277 352 342 332 337 345 296 306 309 305 316 280 262 264 254 237 228 231 226 223 219 226 213 181 209 198 189 205 190 196 202 199 198 194 202 195 203 185
245 256 253 257 262 280 284 267 273 269 312 312 298 293 288 312 311 322 322 321 327 332 197 171 240 267 293 291 306 327 295 273 238 231 233 198 228 219 207 228 224 214 196 198 200 186 188 201 191 199 194 200 201 200
249 253 266 274 285 287 284 246 291 290 332 332 311 299 296 398 433 424 421 422 415 410 291 67 71 289 291 246 296 285 227 308 279 250 247 241 236 230 226 193 224 210 187 200 204 179 192 190 201 195 204 201 191 192
263 260 277 274 271 294 263 280 305 343 296 308 299 441 427 409 394 386 393 379 399 415 407 426 474 83 287 308 325 337 158 282 273 290 277 254 242 238 240 244 211 236 217 215 207 183 203 201 179 198 192 209 196 199
268 258 269 237 238 305 315 319 313 294 282 450 424 409 396 373 362 354 425 308 100 104 117 246 91 479 409 426 369 275 320 318 294 326 303 273 256 252 253 252 233 237 206 208 216 184 190 195 208 200 200 210 187 201
279 269 300 313 334 298 350 291 315 447 428 411 393 377 358 333 379 409 391 318 187 236 370 308 441 467 442 442 452 476 355 284 324 319 323 305 272 273 271 245 237 235 226 204 209 196 203 200 208 209 193 204 205 203
305 298 317 299 332 304 269 443 438 411 393 377 352 337 389 383 389 363 351 345 345 278 71 95 178 374 376 405 415 432 456 479 320 319 255 328 284 284 205 250 237 233 227 228 194 211 226 203 220 217 208 203 207 204
310 289 325 296 266 405 431 433 404 379 359 334 331 396 405 353 345 338 333 326 331 338 80 349 329 108 120 342 384 390 429 465 484 315 325 273 308 301 281 254 252 244 230 164 224 209 215 229 223 225 203 196 200 201
306 321 272 312 433 422 422 391 371 351 324 368 386 379 328 323 318 320 327 322 319 330 81 82 76 169 374 339 215 377 402 450 466 311 316 312 332 320 297 277 255 243 229 225 230 227 226 213 225 228 222 222 196 208
281 295 381 425 416 412 376 364 342 321 404 380 351 321 313 314 320 327 304 333 341 328 299 148 389 79 189 327 348 375 388 403 463 490 302 318 209 318 295 265 268 247 239 229 227 229 229 225 226 230 232 233 225 232
348 416 415 406 399 365 361 332 311 416 384 373 316 310 306 311 305 384 379 368 333 294 306 392 90 281 322 326 333 361 397 416 419 388 319 314 310 309 293 275 241 253 245 234 227 225 229 228 225 225 222 222 222 232
413 404 400 380 367 354 324 332 464 377 381 318 304 297 299 311 285 424 351 339 303 310 310 318 327 325 327 327 343 373 398 424 425 427 355 283 280 274 291 269 261 249 244 237 236 221 225 228 229 225 225 229 230 226
396 388 366 359 339 364 506 497 373 390 325 299 298 295 308 307 332 339 332 324 296 301 310 322 347 338 334 341 364 393 416 375 373 377 355 277 269 280 289 258 261 262 249 242 238 235 231 231 232 233 233 233 232 232
369 354 344 378 467 483 496 382 385 354 302 295 294 326 279 321 332 326 331 350 341 316 308 327 332 361 345 365 358 346 364 345 340 356 327 285 264 273 241 284 261 261 260 253 241 239 238 235 234 233 236 239 236 242
342 376 449 453 473 473 393 364 359 321 296 294 278 281 315 328 309 306 297 299 299 297 314 322 363 310 387 377 337 334 324 317 331 327 296 357 267 265 269 272 279 272 260 256 256 253 249 250 249 247 250 239 254 256
401 436 444 454 469 424 357 371 345 316 290 296 299 296 299 300 286 297 303 309 306 300 305 311 306 303 302 310 312 299 312 330 331 330 315 280 265 265 264 266 272 279 277 273 265 261 258 258 229 255 260 260 261 259
419 430 443 454 403 370 341 368 329 315 288 286 269 273 270 299 308 285 270 280 288 299 285 289 293 290 282 286 287 300 311 306 308 314 306 292 277 265 263 264 266 273 276 277 273 271 268 265 260 256 253 250 254 255
418 424 433 437 348 316 333 359 328 314 289 269 285 281 261 270 288 272 292 298 305 288 288 285 282 286 278 280 279 280 283 284 289 293 289 284 262 262 260 263 272 273 278 279 278 274 271 269 264 260 259 257 258 259
410 411 427 358 335 347 328 358 323 308 289 274 296 287 260 274 275 253 282 272 277 271 274 278 285 270 279 271 266 281 286 272 272 274 278 275 263 261 261 264 269 269 272 277 280 280 278 275 274 275 274 269 264 263
402 399 403 342 333 343 327 324 331 311 298 274 269 293 265 287 275 256 272 277 275 268 271 275 271 273 273 270 272 262 273 268 267 281 279 284 282 269 259 260 261 262 262 268 270 270 272 271 270 266 266 270 274 277
396 393 397 365 343 347 322 325 350 320 296 291 270 282 279 286 268 273 275 259 276 283 271 271 268 278 261 262 262 269 274 269 280 281 282 277 225 228 253 248 260 258 258 260 262 264 266 264 263 265 266 266 266 263
391 396 389 358 333 346 328 317 357 333 312 288 283 265 265 276 264 261 265 276 277 268 271 262 266 269 262 266 270 269 262 269 274 274 274 276 279 285 299 291 282 248 249 257 254 253 254 253 253 254 261 290 292 303
367 387 397 364 339 343 341 321 314 351 327 311 289 278 266 266 272 264 259 267 278 276 264 271 271 272 272 277 275 273 270 275 284 287 287 283 281 280 280 278 278 278 278 277 284 286 288 290 290 290 293 299 306 315
371 378 382 381 355 337 338 339 317 315 347 327 311 292 282 273 263 262 264 257 257 264 269 272 272 270 272 273 274 277 276 274 271 268 266 269 272 273 273 273 274 276 279 280 282 281 283 291 295 305 317 351 390 384
358 377 380 387 395 344 330 335 333 321 311 333 337 320 299 287 281 274 267 264 264 262 259 258 259 258 258 260 263 264 266 267 269 269 271 272 273 273 275 274 273 275 279 291 292 298 307 322 377 454 366 418 421 464
360 369 380 402 382 411 388 333 327 327 321 317 324 338 335 321 306 290 283 278 278 274 267 266 268 267 267 266 266 270 270 274 273 273 270 268 272 277 281 281 289 293 296 314 337 365 367 337 394 394 389 409 406 396
363 362 391 391 390 413 422 435 472 345 319 318 316 315 321 329 331 326 322 316 306 297 292 289 285 285 284 285 285 287 287 288 290 293 289 291 295 294 297 313 336 349 353 355 369 399 379 383 370 365 388 412 406 393
372 384 386 382 375 390 396 402 388 334 371 341 330 324 320 316 319 325 334 339 342 342 339 336 332 326 322 319 317 316 318 320 325 328 338 340 341 344 350 360 398 427 408 397 384 373 361 374 403 397 387 376 367 327
390 378 367 361 366 377 378 378 377 381 383 333 393 378 336 337 336 334 331 329 328 329 332 334 340 348 350 348 349 351 347 356 353 356 358 357 364 357 432 421 399 385 373 360 351 350 386 380 370 360 350 343 315 310
365 357 352 349 349 353 352 357 359 360 363 367 367 371 376 375 370 329 336 335 339 335 333 333 335 338 339 341 342 343 345 345 349 403 406 405 439 398 385 373 362 350 345 347 379 372 363 350 340 335 329 331 329 336
363 352 349 346 345 349 344 346 348 351 351 353 356 356 359 360 362 367 376 380 381 381 385 387 390 391 391 388 385 385 386 383 388 436 398 374 366 358 347 340 339 337 372 367 361 351 340 333 320 299 288 278 331 321
Wind_Speed
94 97 77 98 102 98 108 106 107 102 100 105 105 114 105 102 112 108 107 114 118 114 106 110 79 87 97 97 96 97 96 90 93 89 76 71 66 64 56 65 61 64 53 59 53 43 43 44 45 44 42 40 48 35
92 93 94 95 97 100 99 100 94 101 99 95 100 99 100 105 104 93 56 101 103 117 100 108 109 109 106 99 98 97 99 98 96 92 81 79 66 72 65 64 68 64 65 59 58 54 55 55 45 47 45 44 43 42
90 93 98 90 104 104 96 109 100 100 103 102 98 100 107 100 108 97 98 96 102 104 102 98 94 101 104 106 113 108 102 101 99 100 95 82 73 70 70 60 71 66 56 64 58 63 65 63 58 53 55 44 49 43
98 107 102 101 100 104 107 102 104 103 102 98 96 96 99 97 98 100 102 101 103 105 58 26 48 85 104 100 103 106 109 109 106 105 103 78 85 77 73 66 71 72 69 70 68 57 54 66 54 62 52 53 53 57
105 106 107 107 109 108 108 101 101 101 102 97 97 98 100 77 69 73 74 69 71 78 99 18 18 83 81 77 101 101 80 105 111 110 114 102 95 90 83 73 67 74 67 74 76 52 60 59 72 58 71 58 51 53
111 104 110 104 99 111 93 99 104 104 99 101 100 64 61 62 65 68 67 59 58 67 77 74 58 45 91 96 102 101 65 103 108 114 115 109 101 96 90 84 69 74 77 82 82 58 76 75 47 69 52 75 63 66
107 96 101 94 97 109 105 103 101 100 101 63 59 57 56 59 63 64 52 35 33 26 35 53 27 42 43 49 80 92 103 108 108 107 115 112 104 105 100 87 80 78 79 80 82 65 67 72 85 75 68 81 61 71
108 101 112 111 108 100 104 98 92 64 61 57 54 51 52 57 53 44 32 37 46 43 55 51 52 44 32 39 44 44 63 102 106 103 108 110 107 108 106 80 84 80 79 83 84 80 84 78 86 88 65 82 81 76
111 105 106 100 103 97 97 65 61 57 55 51 49 49 41 43 38 32 37 38 35 47 20 23 27 15 23 25 34 39 45 55 98 101 81 107 103 105 75 88 86 82 81 85 80 84 89 82 93 95 88 81 83 78
103 100 104 95 94 78 64 59 53 52 48 49 47 34 28 31 34 38 41 38 41 37 22 24 22 10 28 29 30 40 38 42 54 93 95 91 97 102 88 87 89 88 83 71 89 88 89 90 93 93 79 67 74 75
99 101 93 102 63 62 58 52 49 45 49 39 30 23 27 33 40 41 36 31 34 38 21 22 16 19 22 25 22 36 41 35 48 86 92 95 96 90 86 84 88 89 88 90 93 91 90 89 94 93 95 93 71 89
93 96 83 61 60 55 50 47 43 45 30 28 19 22 31 37 37 39 27 31 36 36 24 19 17 29 24 29 28 37 42 46 37 40 87 87 45 82 87 81 86 90 93 93 92 93 94 92 92 94 93 93 93 94
93 62 58 57 53 49 46 42 44 25 25 21 22 32 34 34 27 27 29 24 30 23 25 11 23 32 29 26 29 33 37 35 37 57 83 75 72 72 80 86 85 90 93 95 95 92 94 94 92 91 89 89 88 92
58 56 54 52 47 45 43 39 24 24 25 23 26 27 27 26 15 13 21 21 18 23 27 28 29 27 24 30 29 29 34 35 40 47 66 70 70 71 78 84 88 92 94 95 96 90 92 93 95 93 91 94 95 91
54 51 51 47 44 40 26 22 23 27 25 24 25 23 18 12 6 10 18 17 22 20 26 21 24 25 27 25 19 19 20 35 33 34 50 66 67 70 76 82 85 88 92 93 95 96 96 96 96 96 96 98 97 95
49 49 47 44 32 26 21 23 26 27 25 25 21 15 16 7 8 10 6 10 20 27 23 15 18 17 27 24 26 24 29 34 32 33 51 66 65 67 54 75 82 86 89 92 94 97 98 96 95 94 95 98 96 102
48 46 30 30 26 20 24 24 29 30 27 24 17 16 17 15 25 28 23 25 23 18 13 10 12 15 11 28 22 13 13 20 24 33 55 25 64 67 70 73 76 83 87 90 95 96 97 98 98 98 99 94 101 101
37 28 28 24 18 21 26 30 34 33 29 22 28 25 23 29 18 20 24 24 22 19 18 22 33 31 30 26 19 18 15 18 19 22 34 56 66 69 72 74 74 75 82 88 93 96 97 97 82 97 99 98 98 99
23 22 21 15 18 27 27 34 36 37 31 29 23 24 18 22 29 28 17 17 17 22 26 21 32 33 29 27 23 21 21 25 28 29 37 53 62 73 74 75 74 73 75 79 85 89 92 95 95 94 93 93 96 98
18 15 12 8 22 21 28 36 41 37 33 28 35 33 21 24 31 19 27 23 26 29 28 30 34 36 35 34 31 28 26 27 25 27 42 52 71 70 69 70 69 71 71 74 78 81 85 89 91 93 94 94 96 99
13 10 8 25 23 31 30 38 43 37 35 32 36 41 27 30 28 19 34 29 29 28 29 28 31 37 35 36 38 19 18 42 45 47 45 60 70 70 69 68 67 67 67 68 70 73 77 81 83 86 87 90 93 94
9 7 9 26 25 32 32 31 45 41 38 36 33 41 31 41 36 26 35 28 30 26 29 33 31 31 28 28 25 38 31 42 46 37 44 44 51 58 65 65 66 67 68 69 70 72 73 75 77 82 84 85 86 87
7 9 12 27 29 34 30 32 45 46 38 38 36 37 39 45 34 32 35 30 26 32 33 31 29 27 33 33 34 33 33 38 31 35 38 46 36 39 44 53 64 64 65 67 68 69 71 72 74 76 79 81 82 83
4 7 14 28 28 32 32 31 40 47 46 40 41 38 35 42 36 31 28 33 35 31 30 29 28 30 30 32 35 36 33 33 35 37 39 40 38 38 36 42 45 63 65 68 69 69 70 71 72 75 81 72 75 74
10 5 9 26 30 31 34 33 31 43 49 49 43 43 41 39 38 35 32 32 37 39 31 34 36 37 37 40 39 36 36 36 37 35 34 33 34 35 37 40 44 47 51 55 54 56 58 59 62 66 67 69 71 75
8 9 11 17 28 30 30 33 32 31 42 49 52 46 45 45 41 40 39 37 34 35 36 38 38 37 38 39 39 38 35 34 34 35 36 37 37 39 41 44 46 48 50 52 55 58 61 62 64 66 71 72 62 56
13 12 9 8 10 28 28 29 30 31 31 38 47 53 52 48 47 48 46 44 43 42 41 40 40 40 40 40 39 39 39 40 41 41 41 42 42 43 44 46 48 51 54 56 57 59 64 69 64 42 52 28 27 16
14 11 9 8 9 7 14 26 27 28 29 31 34 41 49 54 56 51 50 50 51 50 48 47 47 47 46 45 45 45 45 45 45 45 45 45 47 48 48 49 53 55 57 65 66 60 54 48 34 32 30 18 16 17
9 4 6 3 2 2 7 11 15 21 27 29 31 33 35 40 47 51 55 57 58 57 56 54 52 51 50 51 50 50 50 49 50 51 49 49 51 50 51 61 62 58 54 50 44 29 32 29 29 28 22 12 10 9
5 3 5 5 5 9 15 15 13 20 14 25 29 31 33 34 36 39 42 45 47 50 53 56 58 59 59 60 59 60 60 60 60 60 58 56 54 52 50 47 32 15 18 19 21 23 24 19 10 7 6 7 8 14
7 12 13 11 8 9 12 13 12 13 12 20 12 12 28 30 32 34 35 35 36 36 38 39 41 44 45 46 47 48 47 46 45 45 44 42 38 36 15 12 13 15 16 18 19 18 9 7 4 5 6 8 12 13
15 15 15 13 11 9 9 9 9 9 9 9 9 8 8 10 14 28 29 30 31 32 32 33 33 34 35 35 35 35 35 34 31 15 16 15 10 10 11 11 13 15 14 13 9 7 5 4 5 6 8 10 12 14
15 16 15 13 10 8 7 7 7 7 7 7 8 9 9 10 11 11 10 11 13 13 12 13 12 12 12 13 14 15 14 13 11 9 10 10 10 10 11 12 11 10 10 8 6 5 5 5 7 8 10 11 13 14
Wind_Direction
277 277 282 280 278 280 279 278 278 279 282 283 280 274 274 273 272 272 271 269 267 265 260 262 263 263 259 259 259 260 262 264 265 265 256 260 256 251 257 255 261 261 268 269 268 267 263 271 273 273 267 261 265 268
279 280 283 285 286 288 288 289 283 275 287 283 288 285 279 270 270 275 273 268 267 265 261 259 257 258 260 259 255 257 256 258 257 260 259 257 253 256 259 257 256 257 261 267 271 269 270 271 268 269 271 271 271 274
282 288 290 286 292 291 286 293 285 289 288 288 284 276 273 274 272 275 271 266 267 265 266 261 259 257 256 253 255 253 251 252 253 254 256 255 252 250 250 261 247 261 254 256 268 269 270 269 271 273 273 268 275 268
290 291 292 293 292 293 293 284 284 283 290 288 282 278 276 277 275 271 270 268 267 266 267 276 260 253 256 254 252 250 249 246 248 252 251 251 250 249 243 244 242 245 258 260 260 263 266 271 269 272 271 272 276 275
291 292 292 293 295 294 294 284 291 290 293 291 286 282 281 278 275 272 271 271 271 273 271 311 285 256 248 247 250 246 247 243 245 245 247 248 248 248 246 248 240 243 258 257 256 259 265 267 269 270 273 271 270 273
290 291 294 294 294 294 289 291 293 297 290 289 288 284 281 277 274 273 273 280 280 271 270 270 266 252 251 249 245 243 246 243 241 241 242 243 243 246 246 245 243 247 244 247 251 260 260 261 258 268 268 272 276 277
292 290 293 283 283 295 296 296 295 291 289 288 285 282 279 276 276 278 283 269 239 240 259 274 5 267 258 255 247 244 241 241 242 236 237 239 240 242 244 242 243 242 243 245 249 257 263 264 261 268 270 270 261 275
292 293 293 294 298 295 300 294 291 293 289 288 284 280 277 280 278 279 268 251 246 267 269 270 280 276 258 247 250 250 244 239 237 237 235 238 238 238 239 239 240 240 241 244 249 256 256 261 261 262 261 270 273 276
292 293 296 295 299 297 291 295 295 290 289 286 282 283 277 276 265 265 261 266 268 268 269 22 28 287 250 245 244 244 246 245 233 234 242 233 238 239 239 235 238 239 239 241 254 251 249 252 254 257 263 271 272 277
295 295 300 297 291 300 297 296 290 288 286 283 287 277 263 258 262 264 265 271 274 272 283 281 250 319 318 248 255 246 248 252 242 231 232 238 231 237 235 233 234 236 239 256 243 249 251 252 254 256 266 272 274 276
297 300 293 301 298 298 296 291 289 286 283 281 275 257 247 255 259 269 275 274 273 275 233 254 265 279 246 231 246 246 249 250 242 229 230 234 232 231 235 234 232 235 238 241 243 246 249 253 254 257 258 262 271 272
295 299 299 297 297 295 291 288 286 285 269 271 233 247 252 259 267 271 280 275 255 263 266 268 265 255 263 223 241 243 235 236 239 218 228 232 231 227 232 231 232 233 236 241 244 246 249 252 255 257 260 262 265 268
299 297 298 297 294 291 288 284 285 258 259 238 224 240 259 271 284 273 261 253 244 253 256 293 253 219 214 229 238 249 238 229 212 213 224 229 230 228 229 233 233 233 235 239 244 248 250 252 256 260 263 265 269 271
296 297 297 292 292 288 284 283 242 250 225 208 237 255 267 284 260 249 252 247 230 235 231 217 212 213 213 226 232 248 239 217 201 205 219 222 223 226 228 230 233 232 235 239 242 249 252 255 257 260 264 267 269 272
296 296 292 293 288 287 291 259 239 219 190 226 243 254 264 271 242 230 233 223 220 226 220 211 217 214 207 218 239 188 193 188 198 202 224 222 226 228 227 232 234 236 236 239 242 246 250 253 257 260 262 265 269 272
293 292 292 294 294 291 275 220 213 197 209 223 236 191 269 199 188 163 168 214 206 195 210 193 212 216 202 196 173 179 157 179 194 209 216 218 222 228 235 231 236 238 240 241 243 246 249 253 257 260 263 265 269 272
293 297 288 289 292 272 206 211 199 187 204 212 235 251 162 170 156 157 176 168 163 168 123 98 168 150 134 166 144 141 166 195 194 202 218 202 221 226 230 233 235 238 241 243 245 247 250 253 257 260 263 267 270 272
298 293 295 297 284 209 206 200 192 186 196 196 177 172 162 178 208 184 170 157 154 154 139 117 115 111 104 103 130 159 154 166 185 196 188 214 222 225 229 232 235 236 239 243 247 250 253 256 260 263 266 268 271 273
294 299 304 298 214 196 206 198 194 191 189 187 221 228 237 168 168 179 209 186 160 145 148 138 139 131 147 130 129 124 140 161 171 176 197 212 219 225 229 233 237 239 241 243 246 250 254 257 260 264 267 270 273 275
295 304 302 251 206 224 206 197 196 192 191 198 205 209 219 219 160 198 162 152 161 151 158 154 158 152 169 157 159 163 166 176 176 194 208 215 224 229 232 236 238 241 244 247 249 252 255 258 261 264 267 270 273 275
289 286 291 201 208 198 207 199 199 197 189 191 200 200 214 211 200 222 172 166 160 170 165 165 157 177 168 182 191 177 194 197 200 207 215 221 224 229 234 237 241 244 248 251 254 256 258 261 264 266 269 271 273 276
273 242 209 206 208 200 208 206 199 204 196 193 196 201 213 195 197 215 192 185 178 188 186 183 186 192 177 185 185 201 209 210 214 233 230 238 235 239 238 241 244 247 251 254 257 260 263 265 268 269 272 275 278 279
252 223 208 196 203 200 212 211 204 204 205 197 198 199 207 195 211 206 205 224 204 196 200 197 201 192 207 207 214 218 225 225 237 240 240 238 241 243 245 247 249 252 256 259 262 265 267 269 270 272 274 275 277 279
254 235 210 198 208 204 211 216 208 205 208 203 199 202 204 208 216 222 223 213 207 212 215 221 222 222 224 226 228 230 238 242 246 247 248 250 252 255 259 259 258 256 259 261 263 265 268 269 271 273 274 278 280 283
218 241 234 203 207 206 208 215 217 211 209 210 208 204 207 209 212 216 221 227 223 222 233 224 226 232 235 235 238 244 251 255 253 253 253 253 255 256 257 257 258 259 260 262 266 267 270 273 275 276 278 282 285 288
259 242 234 216 206 209 212 211 217 218 215 214 213 217 213 211 214 216 219 222 224 226 230 234 237 240 244 246 249 251 252 251 250 249 249 252 256 258 259 260 262 265 268 270 271 270 272 277 279 284 288 292 293 292
247 278 253 246 250 212 213 213 215 218 220 218 219 217 221 222 221 220 222 224 226 228 229 231 233 235 236 239 241 244 247 248 250 251 253 255 258 261 264 265 266 268 269 278 279 281 285 288 292 293 290 289 290 292
259 283 298 296 247 289 228 213 214 215 217 219 219 221 222 223 226 228 229 229 230 231 232 234 237 239 242 244 246 249 252 255 256 257 257 258 261 265 269 272 276 278 280 284 286 290 291 288 295 297 296 297 294 289
267 283 298 270 280 20 82 84 87 210 217 219 221 222 223 226 228 231 234 236 239 241 243 244 245 246 249 252 254 257 258 260 263 266 267 269 271 271 274 279 281 283 284 284 285 287 287 287 288 287 287 292 293 295
243 224 140 130 127 119 110 107 128 212 183 215 219 222 226 228 230 231 234 237 240 242 244 246 248 250 252 254 257 259 261 263 265 267 270 272 274 276 277 279 276 262 271 274 276 279 281 284 289 289 289 292 294 278
139 137 128 117 119 136 129 123 126 121 127 210 135 179 223 227 231 234 237 239 242 245 247 249 251 253 255 257 259 261 263 265 267 270 271 272 274 274 259 245 252 258 264 268 272 279 273 277 282 286 287 291 278 287
135 132 126 123 128 136 139 143 145 148 151 153 168 181 187 207 228 235 239 241 243 246 247 249 252 253 255 257 259 260 262 263 264 252 250 254 230 230 236 240 247 254 260 269 250 238 233 246 261 274 281 297 304 311
134 136 133 134 136 141 140 151 155 162 171 183 196 204 213 225 232 242 243 239 239 242 241 241 238 236 234 235 242 247 249 249 244 250 190 203 216 222 228 235 243 250 242 229 216 199 220 241 265 260 266 274 315 310